Glenwood, MN

4:08 PM CDT on August 19, 2017 (GMT -0500)
Glenwood Municipal

Weather History for KGHW - January, 2013

Change the Weather History Date:

Wednesday, January 30, 2013

  Actual Average Record
Temperature  
Mean Temperature 10 °F -  
Max Temperature 19 °F 26 °F 44 °F (1992)
Min Temperature -2 °F 1 °F -28 °F (1950)
Degree Days  
Heating Degree Days 56    
Moisture  
Dew Point 4 °F    
Average Humidity 83    
Maximum Humidity 92    
Minimum Humidity 78    
Precipitation  
Precipitation 0.00 in - - ()
Sea Level Pressure  
Sea Level Pressure 29.76 in    
Wind  
Wind Speed 18 mph (NW)    
Max Wind Speed 26 mph    
Max Gust Speed 30 mph    
Visibility 8 miles    
Events Snow    
Averages and records for this station are not official NWS values.
T = Trace of Precipitation, MM = Missing Value Source: NWS Daily Summary

Daily Weather History Graph

Daily Weather History Graph

Search for Another Location

Airport or City:

Trip Planner

Search our weather history database for the weather conditions in past years. The results will help you decide how hot, cold, wet, or windy it might be!

Date:

Astronomy

Jan. 30, 2013 Rise Set
Actual Time 7:44 AM CST 5:25 PM CST
Civil Twilight 7:12 AM CST 5:57 PM CST
Nautical Twilight 6:37 AM CST 6:32 PM CST
Astronomical Twilight 6:02 AM CST 7:07 PM CST
Moon 9:40 PM CST (1/30) 8:59 AM CST (1/30)
Length of Visible Light 10h 44m
Length of Day
9h 40m
Waning Gibbous, 87% of the Moon is Illuminated
Jan 30
Waning Gibbous
Feb 3
Last Quarter
Feb 10
New
Feb 17
First Quarter
Feb 25
Full

Hourly Weather History & Observations

Time (CST) Temp. Windchill Dew Point Humidity Pressure Visibility Wind Dir Wind Speed Gust Speed Precip Events Conditions
12:13 AM 19.4 °F 5.5 °F 15.8 °F 86% 29.80 in 10.0 mi NNW 15.0 mph - N/A   Overcast
12:34 AM 17.6 °F 3.2 °F 14.0 °F 86% 29.79 in 10.0 mi NNW 15.0 mph - N/A   Overcast
12:53 AM 17.6 °F 0.9 °F 14.0 °F 86% 29.77 in 10.0 mi NNW 20.7 mph - N/A   Overcast
1:13 AM 17.6 °F 3.2 °F 12.2 °F 79% 29.78 in 10.0 mi NNW 15.0 mph - N/A   Overcast
1:34 AM 15.8 °F 0.9 °F 12.2 °F 86% 29.77 in 10.0 mi NNW 15.0 mph 27.6 mph N/A   Overcast
1:53 AM 15.8 °F -0.2 °F 10.4 °F 79% 29.77 in 10.0 mi NNW 17.3 mph - N/A   Overcast
2:13 AM 14.0 °F -2.5 °F 10.4 °F 86% 29.76 in 10.0 mi NNW 17.3 mph - N/A   Overcast
2:34 AM 14.0 °F -3.0 °F 10.4 °F 86% 29.76 in 10.0 mi NNW 18.4 mph 21.9 mph N/A   Overcast
2:53 AM 12.2 °F -4.3 °F 10.4 °F 92% 29.76 in 10.0 mi NW 16.1 mph 23.0 mph N/A   Overcast
3:13 AM 12.2 °F -4.8 °F 8.6 °F 85% 29.77 in 10.0 mi NW 17.3 mph - N/A   Overcast
3:34 AM 12.2 °F -4.8 °F 8.6 °F 85% 29.77 in 10.0 mi NW 17.3 mph - N/A   Overcast
3:53 AM 12.2 °F -6.3 °F 8.6 °F 85% 29.78 in 10.0 mi NNW 20.7 mph 24.2 mph N/A   Overcast
4:13 AM 12.2 °F -5.3 °F 8.6 °F 85% 29.77 in 10.0 mi NW 18.4 mph - N/A   Overcast
4:34 AM 12.2 °F -5.8 °F 8.6 °F 85% 29.76 in 10.0 mi NW 19.6 mph 25.3 mph N/A   Overcast
4:53 AM 10.4 °F -8.6 °F 6.8 °F 85% 29.76 in 10.0 mi NW 20.7 mph - N/A   Overcast
5:13 AM 10.4 °F -9.1 °F 6.8 °F 85% 29.76 in 10.0 mi NW 21.9 mph - N/A   Overcast
5:34 AM 10.4 °F -7.2 °F 6.8 °F 85% 29.75 in 10.0 mi NW 17.3 mph - N/A   Overcast
5:53 AM 10.4 °F -7.2 °F 6.8 °F 85% 29.75 in 10.0 mi NW 17.3 mph - N/A   Overcast
6:13 AM 10.4 °F -8.2 °F 6.8 °F 85% 29.75 in 10.0 mi NW 19.6 mph 24.2 mph N/A   Overcast
6:33 AM 10.4 °F -7.2 °F 6.8 °F 85% 29.75 in 10.0 mi NW 17.3 mph - N/A   Overcast
6:54 AM 10.4 °F -9.1 °F 6.8 °F 85% 29.75 in 10.0 mi NW 21.9 mph 25.3 mph N/A   Overcast
7:13 AM 10.4 °F -6.6 °F 5.0 °F 79% 29.75 in 10.0 mi NW 16.1 mph - N/A   Overcast
7:33 AM 8.6 °F -8.9 °F 5.0 °F 85% 29.75 in 10.0 mi NNW 16.1 mph - N/A   Overcast
7:54 AM 8.6 °F -10.0 °F 3.2 °F 79% 29.75 in 10.0 mi NNW 18.4 mph 23.0 mph N/A   Overcast
8:13 AM 8.6 °F -7.7 °F 5.0 °F 85% 29.75 in 10.0 mi NW 13.8 mph - N/A   Overcast
8:33 AM 8.6 °F -10.0 °F 3.2 °F 79% 29.75 in 10.0 mi NW 18.4 mph 24.2 mph N/A   Overcast
8:54 AM 8.6 °F -9.5 °F 3.2 °F 79% 29.75 in 10.0 mi NW 17.3 mph 25.3 mph N/A   Overcast
9:13 AM 8.6 °F -10.0 °F 3.2 °F 79% 29.75 in 10.0 mi NW 18.4 mph - N/A   Overcast
9:33 AM 8.6 °F -10.0 °F 3.2 °F 79% 29.75 in 10.0 mi NW 18.4 mph - N/A   Overcast
9:54 AM 8.6 °F -9.5 °F 3.2 °F 79% 29.76 in 10.0 mi NW 17.3 mph 20.7 mph N/A   Overcast
10:13 AM 8.6 °F -8.9 °F 5.0 °F 85% 29.76 in 10.0 mi NW 16.1 mph 23.0 mph N/A   Overcast
10:33 AM 8.6 °F -8.9 °F 3.2 °F 79% 29.76 in 10.0 mi NW 16.1 mph 25.3 mph N/A   Overcast
10:54 AM 10.4 °F -6.6 °F 5.0 °F 79% 29.77 in 10.0 mi NW 16.1 mph - N/A   Overcast
11:13 AM 10.4 °F -4.8 °F 5.0 °F 79% 29.77 in 10.0 mi NW 12.7 mph - N/A   Overcast
11:33 AM 10.4 °F -6.0 °F 5.0 °F 79% 29.77 in 10.0 mi NNW 15.0 mph - N/A   Overcast
11:54 AM 10.4 °F -6.6 °F 6.8 °F 85% 29.76 in 10.0 mi NW 16.1 mph - N/A   Overcast
12:13 PM 12.2 °F -3.1 °F 6.8 °F 79% 29.75 in 10.0 mi NW 13.8 mph - N/A   Overcast
12:33 PM 10.4 °F -8.6 °F 6.8 °F 85% 29.74 in 7.0 mi WNW 20.7 mph - N/A   Overcast
12:54 PM 10.4 °F -8.2 °F 6.8 °F 85% 29.74 in 4.0 mi WNW 19.6 mph - N/A   Haze
1:13 PM 10.4 °F -9.9 °F 5.0 °F 79% 29.74 in 3.0 mi WNW 24.2 mph - N/A   Haze
1:33 PM 10.4 °F -9.5 °F 5.0 °F 79% 29.73 in 5.0 mi WNW 23.0 mph 27.6 mph N/A   Haze
1:54 PM 10.4 °F -7.7 °F 5.0 °F 79% 29.73 in 7.0 mi NW 18.4 mph - N/A   Overcast
2:13 PM 10.4 °F -8.6 °F 5.0 °F 79% 29.73 in 5.0 mi NW 20.7 mph 28.8 mph N/A   Haze
2:33 PM 10.4 °F -9.9 °F 5.0 °F 79% 29.72 in 4.0 mi NW 24.2 mph 29.9 mph N/A   Haze
2:54 PM 10.4 °F -8.6 °F 5.0 °F 79% 29.73 in 5.0 mi NW 20.7 mph - N/A   Haze
3:13 PM 10.4 °F -9.9 °F 5.0 °F 79% 29.73 in 5.0 mi WNW 24.2 mph 28.8 mph N/A   Haze
3:33 PM 10.4 °F -9.5 °F 5.0 °F 79% 29.73 in 3.0 mi NW 23.0 mph 28.8 mph N/A   Haze
3:54 PM 8.6 °F -13.1 °F 3.2 °F 79% 29.73 in 4.0 mi NW 26.5 mph - N/A   Haze
4:13 PM 8.6 °F -10.0 °F 3.2 °F 79% 29.74 in 4.0 mi NW 18.4 mph 28.8 mph N/A   Haze
4:33 PM 8.6 °F -11.4 °F 3.2 °F 79% 29.74 in 5.0 mi NW 21.9 mph 27.6 mph N/A   Haze
4:54 PM 8.6 °F -11.0 °F 3.2 °F 79% 29.75 in 1.5 mi WNW 20.7 mph 26.5 mph N/A Snow Light Snow
5:13 PM 6.8 °F -13.4 °F 3.2 °F 85% 29.75 in 2.0 mi WNW 20.7 mph 25.3 mph N/A   Overcast
5:33 PM 6.8 °F -13.8 °F 1.4 °F 79% 29.75 in 5.0 mi WNW 21.9 mph - N/A   Overcast
5:54 PM 6.8 °F -12.9 °F 1.4 °F 79% 29.75 in 10.0 mi WNW 19.6 mph 27.6 mph N/A   Mostly Cloudy
6:13 PM 6.8 °F -11.8 °F 1.4 °F 79% 29.75 in 10.0 mi WNW 17.3 mph 26.5 mph N/A   Scattered Clouds
6:33 PM 5.0 °F -13.6 °F 1.4 °F 85% 29.75 in 5.0 mi WNW 16.1 mph - N/A   Mostly Cloudy
6:54 PM 5.0 °F -14.7 °F 1.4 °F 85% 29.75 in 5.0 mi WNW 18.4 mph - N/A   Overcast
7:13 PM 5.0 °F -14.7 °F 1.4 °F 85% 29.75 in 5.0 mi WNW 18.4 mph - N/A   Overcast
7:33 PM 3.2 °F -18.6 °F 1.4 °F 92% 29.76 in 2.0 mi WNW 21.9 mph - N/A   Overcast
7:54 PM 3.2 °F -18.6 °F -0.4 °F 85% 29.76 in 2.5 mi WNW 21.9 mph - N/A   Overcast
8:13 PM 3.2 °F -18.1 °F -0.4 °F 85% 29.76 in 4.0 mi WNW 20.7 mph 27.6 mph N/A   Overcast
8:34 PM 1.4 °F -21.4 °F -2.2 °F 85% 29.76 in 5.0 mi WNW 23.0 mph - N/A   Overcast
8:53 PM 1.4 °F -20.5 °F -2.2 °F 85% 29.77 in 5.0 mi WNW 20.7 mph - N/A   Overcast
9:13 PM 1.4 °F -20.5 °F -2.2 °F 85% 29.76 in 5.0 mi WNW 20.7 mph 26.5 mph N/A   Overcast
9:34 PM 1.4 °F -19.4 °F -2.2 °F 85% 29.77 in 7.0 mi WNW 18.4 mph - N/A   Overcast
9:53 PM 1.4 °F -18.2 °F -2.2 °F 85% 29.77 in 7.0 mi WNW 16.1 mph - N/A   Overcast
10:13 PM 1.4 °F -19.4 °F -2.2 °F 85% 29.78 in 7.0 mi WNW 18.4 mph - N/A   Overcast
10:34 PM 1.4 °F -18.8 °F -4.0 °F 78% 29.78 in 5.0 mi WNW 17.3 mph - N/A   Haze
10:53 PM -0.4 °F -21.7 °F -4.0 °F 85% 29.78 in 7.0 mi WNW 18.4 mph - N/A   Overcast
11:13 PM -0.4 °F -22.3 °F -5.8 °F 78% 29.78 in 10.0 mi WNW 19.6 mph - N/A   Overcast
11:34 PM -2.2 °F -24.7 °F -5.8 °F 85% 29.78 in 7.0 mi WNW 19.6 mph 25.3 mph N/A   Overcast